This is the latest recevied weather packets stored in our database for station/object IW4EGP-3. If no packets are shown the sender has not sent any weather packets the latest 10 day(s).
| Time | Temp. | Humidity | Pressure | Rain* | Wind** | Luminosity | Snow |
|---|---|---|---|---|---|---|---|
| 1788564716 | 28.89° C | 43% | 1017.8 hPa | 0 mm | - | - | - |
| 1788564669 | 28.89° C | 43% | 1017.8 hPa | 0 mm | - | - | - |
| 1788564610 | 28.89° C | 43% | 1017.8 hPa | 0 mm | - | - | - |
| 1788563749 | 27.78° C | 45% | 1017.9 hPa | 0 mm | - | - | - |
| 1788563707 | 27.78° C | 45% | 1017.9 hPa | 0 mm | - | - | - |
| 1788562932 | 29.44° C | 42% | 1018 hPa | 0 mm | - | - | - |
| 1788562900 | 29.44° C | 42% | 1018 hPa | 0 mm | - | - | - |
| 1788562810 | 29.44° C | 42% | 1018 hPa | 0 mm | - | - | - |
| 1788562123 | 28.89° C | 43% | 1017.9 hPa | 0 mm | - | - | - |
| 1788561991 | 28.89° C | 43% | 1017.9 hPa | 0 mm | - | - | - |
| 1788561947 | 28.89° C | 43% | 1017.9 hPa | 0 mm | - | - | - |
| 1788561910 | 28.89° C | 43% | 1017.9 hPa | 0 mm | - | - | - |
| 1788561187 | 27.22° C | 49% | 1017.7 hPa | 0 mm | - | - | - |
| 1788561089 | 27.22° C | 49% | 1017.7 hPa | 0 mm | - | - | - |
| 1788561009 | 27.22° C | 49% | 1017.7 hPa | 0 mm | - | - | - |
| 1788560110 | 26.11° C | 49% | 1018 hPa | 0 mm | - | - | - |
| 1788559253 | 26.11° C | 55% | 1018 hPa | 0 mm | - | - | - |
| 1788559218 | 26.11° C | 55% | 1018 hPa | 0 mm | - | - | - |
| 1788558466 | 26.11° C | 60% | 1018.2 hPa | 0 mm | - | - | - |
| 1788558441 | 26.11° C | 60% | 1018.2 hPa | 0 mm | - | - | - |
| 1788558378 | 26.11° C | 60% | 1018.2 hPa | 0 mm | - | - | - |
| 1788558345 | 26.11° C | 60% | 1018.2 hPa | 0 mm | - | - | - |
| 1788558309 | 26.11° C | 60% | 1018.2 hPa | 0 mm | - | - | - |
| 1788557442 | 25.56° C | 63% | 1018.1 hPa | 0 mm | - | - | - |
| 1788557411 | 25.56° C | 63% | 1018.1 hPa | 0 mm | - | - | - |
* Rain latest hour (hover to see other rain measurements)
** Current wind speed in m/s (hover to see current wind gust speed)